| time (UTC) | temp F | wind direction | speed MPH | gust MPH | rain 1hr in | rain 24hr in | rain mn in | humidity % | barometer mb |
| 20260503021523 | 36 | 322 | 0.0 | 1.0 | 0.00 | 0.64 | 0.39 | 90 | 1010.6 |
| 20260503020023 | 37 | 321 | 2.0 | 4.0 | 0.00 | 0.64 | 0.39 | 90 | 1010.6 |
| 20260503014525 | 37 | 319 | 1.0 | 4.0 | 0.00 | 0.71 | 0.39 | 89 | 1010.7 |
| 20260503013022 | 38 | 321 | 1.0 | 6.0 | 0.00 | 0.71 | 0.39 | 89 | 1010.7 |
| 20260503011523 | 37 | 295 | 2.0 | 5.0 | 0.00 | 0.71 | 0.39 | 89 | 1010.6 |
| 20260503010027 | 37 | 331 | 3.0 | 6.0 | 0.00 | 0.71 | 0.39 | 89 | 1010.6 |
| 20260503004519 | 38 | 38 | 1.0 | 5.0 | 0.00 | 0.72 | 0.39 | 88 | 1010.3 |
| 20260503003017 | 39 | 22 | 1.0 | 5.0 | 0.00 | 0.72 | 0.39 | 88 | 1010.1 |
| 20260503001514 | 39 | 296 | 3.0 | 6.0 | 0.00 | 0.72 | 0.39 | 88 | 1010.0 |
| 20260503000012 | 39 | 250 | 1.0 | 2.0 | 0.00 | 0.72 | 0.39 | 87 | 1009.9 |
| 20260502234522 | 40 | 250 | 0.0 | 2.0 | 0.00 | 0.80 | 0.39 | 88 | 1009.6 |
| 20260502233008 | 40 | 250 | 0.0 | 3.0 | 0.00 | 0.80 | 0.39 | 87 | 1009.3 |
| 20260502231507 | 40 | 250 | 1.0 | 4.0 | 0.00 | 0.80 | 0.39 | 87 | 1009.1 |
| 20260502230006 | 40 | 238 | 2.0 | 6.0 | 0.00 | 0.80 | 0.39 | 86 | 1009.0 |
| 20260502224505 | 41 | 211 | 2.0 | 6.0 | 0.00 | 0.90 | 0.39 | 85 | 1009.0 |
| 20260502223003 | 41 | 180 | 2.0 | 5.0 | 0.00 | 0.90 | 0.39 | 84 | 1008.8 |
| 20260502221501 | 42 | 185 | 2.0 | 5.0 | 0.00 | 0.90 | 0.39 | 82 | 1008.8 |
| 20260502220100 | 42 | 192 | 3.0 | 6.0 | 0.00 | 0.90 | 0.39 | 82 | 1008.6 |
| 20260502214559 | 43 | 209 | 5.0 | 10.0 | 0.00 | 1.00 | 0.39 | 81 | 1008.5 |
| 20260502213107 | 43 | 249 | 2.0 | 9.0 | 0.00 | 1.00 | 0.39 | 81 | 1008.4 |
| 20260502211557 | 43 | 250 | 3.0 | 8.0 | 0.00 | 1.00 | 0.39 | 82 | 1008.3 |
| 20260502210056 | 43 | 218 | 3.0 | 7.0 | 0.00 | 1.00 | 0.39 | 83 | 1008.4 |
| 20260502204605 | 42 | 260 | 4.0 | 7.0 | 0.00 | 1.12 | 0.39 | 86 | 1008.3 |
| 20260502203054 | 41 | 209 | 3.0 | 8.0 | 0.00 | 1.12 | 0.39 | 84 | 1008.3 |
| 20260502201553 | 42 | 211 | 6.0 | 9.0 | 0.00 | 1.12 | 0.39 | 86 | 1008.3 |
| 20260502200053 | 42 | 231 | 5.0 | 9.0 | 0.00 | 1.12 | 0.39 | 87 | 1008.3 |
| 20260502194552 | 42 | 189 | 4.0 | 8.0 | 0.00 | 1.31 | 0.39 | 86 | 1008.3 |
| 20260502193053 | 41 | 225 | 4.0 | 8.0 | 0.00 | 1.31 | 0.39 | 88 | 1008.3 |
| 20260502191551 | 41 | 241 | 4.0 | 8.0 | 0.00 | 1.31 | 0.39 | 88 | 1008.2 |
| 20260502190050 | 41 | 211 | 4.0 | 8.0 | 0.00 | 1.31 | 0.39 | 88 | 1008.3 |
| 20260502184556 | 41 | 207 | 3.0 | 8.0 | 0.00 | 1.52 | 0.39 | 87 | 1008.2 |
| 20260502183048 | 42 | 226 | 3.0 | 6.0 | 0.00 | 1.52 | 0.39 | 88 | 1008.2 |
| 20260502181548 | 41 | 285 | 2.0 | 7.0 | 0.00 | 1.52 | 0.39 | 87 | 1008.3 |
| 20260502163037 | 39 | 224 | 6.0 | 10.0 | 0.00 | 2.12 | 0.39 | 95 | 1008.2 |
| 20260502161536 | 40 | 246 | 5.0 | 9.0 | 0.00 | 2.12 | 0.39 | 96 | 1008.0 |
| 20260502151528 | 38 | 275 | 3.0 | 6.0 | 0.00 | 2.38 | 0.39 | 96 | 1008.1 |
| 20260502123009 | 37 | 127 | 3.0 | 7.0 | 0.01 | 2.76 | 0.36 | 96 | 1007.0 |
| 20260502121527 | 37 | 115 | 4.0 | 8.0 | 0.00 | 2.76 | 0.35 | 96 | 1006.9 |
| 20260502114504 | 36 | 105 | 3.0 | 11.0 | 0.01 | 2.85 | 0.35 | 96 | 1006.7 |
| 20260502113002 | 36 | 94 | 3.0 | 12.0 | 0.01 | 2.85 | 0.35 | 96 | 1006.7 |
| 20260502111501 | 36 | 82 | 4.0 | 9.0 | 0.01 | 2.85 | 0.35 | 96 | 1006.6 |
| 20260502110100 | 36 | 138 | 2.0 | 8.0 | 0.00 | 2.84 | 0.35 | 96 | 1006.5 |
| 20260502104558 | 36 | 126 | 7.0 | 13.0 | 0.00 | 2.98 | 0.35 | 96 | 1006.3 |
| 20260502103109 | 35 | 136 | 6.0 | 16.0 | 0.00 | 2.98 | 0.35 | 96 | 1006.2 |
| 20260502101611 | 35 | 111 | 7.0 | 14.0 | 0.00 | 2.98 | 0.35 | 95 | 1006.2 |
| 20260502070049 | 35 | 115 | 8.0 | 22.0 | 0.07 | 2.99 | 0.32 | 95 | 1005.7 |
| 20260502064548 | 35 | 116 | 11.0 | 19.0 | 0.08 | 2.98 | 0.31 | 95 | 1005.9 |
| 20260502063049 | 35 | 80 | 9.0 | 19.0 | 0.09 | 2.96 | 0.28 | 95 | 1005.8 |
| 20260502061546 | 35 | 102 | 11.0 | 22.0 | 0.09 | 2.94 | 0.27 | 95 | 1005.7 |
| 20260502060045 | 35 | 93 | 11.0 | 24.0 | 0.09 | 2.92 | 0.25 | 95 | 1005.6 |
| 20260502054544 | 35 | 125 | 13.0 | 25.0 | 0.10 | 2.90 | 0.23 | 95 | 1005.7 |
| 20260502053040 | 35 | 147 | 14.0 | 26.0 | 0.12 | 2.87 | 0.20 | 95 | 1006.0 |
| 20260502051538 | 36 | 101 | 9.0 | 27.0 | 0.14 | 2.85 | 0.18 | 95 | 1006.0 |
| 20260502050035 | 36 | 115 | 13.0 | 26.0 | 0.15 | 2.83 | 0.16 | 95 | 1006.2 |
| 20260502044533 | 36 | 84 | 15.0 | 29.0 | 0.16 | 2.80 | 0.13 | 95 | 1006.3 |
| 20260502043031 | 36 | 117 | 11.0 | 23.0 | 0.18 | 2.76 | 0.09 | 95 | 1006.3 |
| 20260502041528 | 36 | 105 | 12.0 | 23.0 | 0.17 | 2.71 | 0.04 | 95 | 1006.3 |
| 20260502040024 | 36 | 127 | 11.0 | 24.0 | 0.17 | 2.68 | 0.01 | 95 | 1006.4 |
| 20260502034524 | 36 | 101 | 12.0 | 26.0 | 0.13 | 2.63 | 2.63 | 95 | 1006.6 |
| 20260502033027 | 37 | 84 | 12.0 | 26.0 | 0.11 | 2.57 | 2.57 | 95 | 1006.6 |
| 20260502031523 | 37 | 105 | 14.0 | 28.0 | 0.10 | 2.54 | 2.54 | 95 | 1006.7 |
| 20260502030022 | 37 | 112 | 12.0 | 23.0 | 0.09 | 2.50 | 2.50 | 95 | 1006.9 |
| 20260502024521 | 36 | 128 | 14.0 | 26.0 | 0.09 | 2.50 | 2.50 | 95 | 1007.1 |
| 20260502023021 | 36 | 119 | 11.0 | 28.0 | 0.09 | 2.46 | 2.46 | 95 | 1007.2 |